Home   Weather   Freetown   Past weeks

Flag for Sierra Leone Past Weather in Freetown, Sierra Leone — Yesterday and Last 2 Weeks

75 °F

Thunderstorms. Passing clouds.

Feels Like: 73 °F
Forecast: 79 / 85 °F
Wind: 7 mph from Northeast

Location: Conakry / Gbessia

Current Time: Oct 22, 2016 at 3:35:54 AM

Latest Report: Oct 22, 2016 at 1:00 AM

Visibility: N/A

Pressure: 29.92 "Hg

Humidity: 100%

Dew Point: 75 °F

Location of FreetownLocation

Past Weather in Freetown — Graph


Freetown Temperature Yesterday

Maximum temperature yesterday: 86 °F (at 1:00 PM)
Minimum temperature yesterday: 75 °F (at 3:00 AM)
Average temperature yesterday: 81 °F

High & Low Weather Summary for the Past Weeks

High90 °F (Oct 12, 3:00 PM)100% (Oct 7, 11:00 PM)29.95 "Hg (Oct 7, 11:00 PM)
Low72 °F (Oct 7, 11:00 PM)59% (Oct 20, 4:00 PM)29.80 "Hg (Oct 7, 3:00 AM)
Average81 °F84%29.88 "Hg
* Reported Oct 7 1:00 AM — Oct 22 1:00 AM, Freetown, Weather by CustomWeather, © 2016

Note: Actual official high and low records may vary slightly from our data, if they occured in-between our weather recording intervals... More about our weather records


Freetown Weather History for the Previous 24 Hours

Scroll right to see more
Time TempWeatherWind HumidityBarometerVisibility
1:00 AM
Sat, Oct 22
75 °FThunderstorms. Passing clouds.7 mph100%29.92 "HgN/A
12:00 AM75 °FThunderstorms. Passing clouds.7 mph94%29.92 "Hg5 mi
11:00 PM
Fri, Oct 21
75 °FThunderstorms. Passing clouds.14 mph94%29.95 "Hg5 mi
10:00 PM81 °FThunderstorms. Partly cloudy.No wind84%29.92 "HgN/A
9:00 PM81 °FThunderstorms. Partly cloudy.7 mph84%29.89 "HgN/A
8:00 PM82 °FThunderstorms. Passing clouds.7 mph84%29.86 "HgN/A
7:00 PM82 °FThunderstorms. Passing clouds.9 mph79%29.83 "HgN/A
6:00 PM86 °FScattered clouds.9 mph75%29.83 "HgN/A
5:00 PM86 °FScattered clouds.9 mph75%29.80 "HgN/A
4:00 PM86 °FPassing clouds.12 mph75%29.80 "HgN/A
3:00 PM86 °FPassing clouds.12 mph79%29.83 "HgN/A
2:00 PM86 °FPartly sunny.7 mph75%29.86 "HgN/A
1:00 PM86 °FPartly sunny.9 mph75%29.89 "HgN/A
12:00 PM84 °FPartly sunny.5 mph74%29.89 "HgN/A
11:00 AM84 °FPartly sunny.5 mph74%29.92 "HgN/A
10:00 AM84 °FPartly sunny.No wind74%29.92 "HgN/A
9:00 AM79 °FPartly sunny.No wind89%29.92 "HgN/A
8:00 AM77 °FPartly sunny.No wind89%29.89 "HgN/A
7:00 AM75 °FBroken clouds.No wind94%29.86 "HgN/A
6:00 AM75 °FLight rain. Passing clouds.No wind94%29.86 "Hg5 mi
5:00 AM75 °FLight rain. Passing clouds.5 mph94%29.86 "Hg5 mi
4:00 AM75 °FLight rain. Passing clouds.No wind94%29.86 "Hg5 mi
3:00 AM75 °FThunderstorms. Passing clouds.2 mph94%29.86 "HgN/A
Weather by CustomWeather, © 2016

See weather overviewHow to use our weather pages